www.pogodaiklimat.ru

Погода и климат >> Архив погоды >> Россия >> Якутия >> Намцы


ПОГОДА в Намцах

  • Прогноз погоды в Намцах
  • Монитор погоды в Намцах
  • Климат города

АРХИВ ПОГОДЫ в Намцах

Время (UTC), дата Ветер
(напр.,м/с)
 
Видим.   Явления Облачность Т
(С)
Тd
(С)
f
(%)
Тe
(С)
Тes
(С)
Комфортность P
(гПа)
Po
(гПа)
Тmin
(С)
Tmax
(С)
R
(мм)
R24
(мм)
S
(см)
00 18.04 З 3 50 км ясно +2.7 -9.3 41 -1 +4 1004.1 993.0 -2.7 22
03 18.04 З 3 50 км 1/1
[Cu hum]
+5.3 -11.0 30 +3 +10 1004.4 993.4
06 18.04 З 1 50 км 1/0
[Ci fib]
+7.7 -12.7 22 +8 +15 1004.1 993.1
09 18.04 ЮВ 2 50 км 1/0
[Ac trans Ci fib]
+6.0 -10.7 29 +5 +6 1004.1 993.1
12 18.04 штиль 0 50 км 1/0
[Ac trans]
+2.1 -8.5 45 +2 +2 1004.3 993.2 +7.8
15 18.04 штиль 0 50 км 3/0
[Ac trans]
-1.8 -7.1 67 -3 -3 1003.9 992.6
18 18.04 штиль 0 50 км 3/0
[Ac As]
-5.3 -7.2 86 -6 -6 1003.6 992.2
21 18.04 штиль 0 50 км 3/0
[Cs]
-6.6 -9.0 83 -7 -7 1003.0 991.5
00 19.04 В 2 50 км 6/0
[Ac trans Cs]
+3.6 -8.4 41 +2 +6 1001.8 990.7 -7.3 20
03 19.04 ЮВ 2 50 км 9/0
[Ac trans Cs]
+8.3 -6.0 36 +7 +14 1000.9 990.1
06 19.04 З 5 50 км 9/0
[Ac lent Cs]
+6.2 -5.0 44 +3 +5 1002.4 991.5
09 19.04 З 4
{12}
50 км 10/1 1000 м
[Sc Ac As]
+1.7 -2.7 73 -3 -3 1005.6 994.5
12 19.04 СЗ 3 20 км слабый снег 10/10 540 м
[St]
-1.1 -2.1 93 -6 -6 1008.2 996.9 +9.5 1
15 19.04 штиль 0 50 км {снег} 10/0
[Ac As Cs]
-1.4 -3.7 84 -3 -3 1009.2 997.9
18 19.04 З 1 50 км {снег} 8/0
[Ac As Cs]
-2.2 -6.1 75 -4 -4 1010.1 998.8
21 19.04 З 2 50 км 9/0
[As trans Cs]
-2.7 -6.4 76 -7 -6 1010.9 999.5
00 20.04 З 2 50 км 9/0
[Cc]
+1.5 -6.5 55 -1 +3 1011.7 1000.4 -2.7 0.0 19
03 20.04 СЗ 4
{11}
50 км 1/0
[Cc]
+3.4 -10.4 36 -0 +6 1011.7 1000.5
06 20.04 СЗ 4 50 км 1/0
[Cc]
+4.6 -13.2 26 +1 +6 1011.8 1000.7
09 20.04 СЗ 4 50 км 1/1 1000 м
[Cu hum Ci fib]
+4.1 -11.8 30 +1 +2 1012.4 1001.3
12 20.04 СЗ 2 50 км ясно +0.6 -11.1 41 -2 -2 1014.0 1002.7 +4.9
15 20.04 СЗ 3 50 км ясно -1.7 -11.7 46 -6 -6 1015.2 1003.8
18 20.04 З 2 50 км 1/0
[Ci fib]
-4.1 -12.5 52 -8 -8 1015.5 1004.3
21 20.04 З 3 50 км 3/0
[Cc]
-4.7 -14.0 48 -10 -9 1016.7 1005.1
00 21.04 З 6
{10}
50 км 1/0
[Ci fib]
-1.3 -13.0 41 -7 -5 1017.2 1005.8 -5.3 18
03 21.04 З 5
{12}
50 км 4/4 600 м
[Cu hum]
+0.5 -14.0 33 -4 -2 1017.5 1006.2
06 21.04 СЗ 4
{11}
50 км 6/6 1000 м
[Sc diur, vesp]
+1.6 -12.1 35 -2 -1 1018.0 1006.7
09 21.04 З 4
{11}
50 км 8/8 1000 м
[Cu med, cong]
+1.7 -11.9 36 -2 -2 1018.9 1007.5
12 21.04 З 1 50 км 1/0
[Ac cuf]
-1.9 -10.3 53 -3 -3 1019.6 1008.1 +2.4
15 21.04 З 1 50 км ясно -5.5 -11.6 62 -7 -7 1020.2 1008.6
18 21.04 штиль 0 50 км ясно -7.1 -11.9 69 -8 -8 1020.8 1009.1
21 21.04 штиль 0 50 км 3/3 1000 м
[Sc]
-6.0 -11.8 64 -7 -6 1020.7 1009.1
00 22.04 В 1 50 км 3/0
[Ci fib]
0.0 -7.3 58 -1 +5 1020.7 1009.3 -7.5 15
03 22.04 штиль 0 50 км 8/3 600 м
[Cu hum Ci]
+3.9 -7.9 42 +4 +11 1019.5 1008.3
06 22.04 З 1 50 км 8/3 1140 м
[Cu hum Ci ing]
+6.1 -8.8 33 +6 +11 1018.3 1007.2
09 22.04 ЮВ 2 50 км 8/3 1000 м
[Cu hum Ci fib]
+4.3 -6.7 45 +2 +3 1017.5 1006.3
12 22.04 Ю 2 50 км 4/0
[Ac trans Ci fib]
+1.9 -6.6 53 -1 -1 1017.1 1005.9 +6.4
15 22.04 Ю 3 50 км 8/0
[Ac trans Cs]
+0.9 -7.2 55 -3 -3 1016.8 1005.5
18 22.04 ЮВ 4 50 км 10/0
[Ac As]
+0.7 -7.9 53 -4 -4 1015.4 1004.1
21 22.04 ЮВ 3 50 км 10/0
[Ac As]
+0.8 -7.8 53 -3 -3 1015.6 1004.3
00 23.04 Ю 3 50 км 10/0
[Ac As Cs]
+2.9 -9.1 41 -0 +2 1014.9 1003.7 +0.4 13
03 23.04 Ю 3 50 км 10/0
[Ac trans Ci fib]
+7.2 -7.8 34 +5 +9 1013.2 1002.2
06 23.04 Ю 3 50 км 9/0
[Ac trans Ci fib]
+9.2 -6.4 33 +8 +11 1011.3 1000.4
09 23.04 ЮВ 2 50 км 10/0
[Ac und Ci fib]
+7.8 -4.4 42 +6 +7 1009.9 999.1
12 23.04 ЮВ 2 50 км 10/0
[Ac As]
+5.6 -4.7 47 +4 +4 1007.6 996.6 +9.3
15 23.04 Ю 4 50 км 10/0
[Ac und]
+5.4 -3.4 53 +2 +2 1004.0 992.6
18 23.04 Ю 3 50 км 10/0
[Ac As]
+3.8 -2.1 65 0 0 1001.0 990.0
21 23.04 З 5 50 км в посл. час ливневой снег {дождь} 10/8 300 м
[Frnb Ac As]
+0.9 -3.7 71 -5 -5 1002.8 991.6
00 24.04 З 7
{13}
50 км {ливн. осадки, дождь} 4/4 1140 м
[Cu med, cong]
-0.4 -7.7 58 -7 -6 1004.7 993.4 -1.1 2 5
03 24.04 З 6
{14}
50 км 8/8 1000 м
[Cu med, cong]
-0.2 -11.9 41 -6 -5 1005.9 994.7
06 24.04 З 6
{12}
50 км 6/5 1000 м
[Cb cap Cc]
-0.4 -9.7 49 -6 -5 1007.1 995.8
09 24.04 З 4
{10}
50 км 9/6 1000 м
[Cb cap Cc]
-1.1 -10.9 47 -6 -6 1007.7 996.4
12 24.04 З 1 50 км {ливн. осадки} 3/0
[Ac cuf Ci fib]
-3.5 -10.5 58 -5 -5 1008.5 997.1 +0.8 0.0
15 24.04 З 1 50 км 6/0
[Ac cuf Ci fib]
-6.4 -10.5 73 -9 -9 1008.0 996.5
18 24.04 З 2 50 км 9/0
[Cc]
-7.1 -11.4 71 -11 -11 1007.8 996.3

 

Местоположение метеостанции Намцы (Якутия, Россия): широта 62.72 долгота 129.60 высота над уровнем моря 90 м.

В архиве по умолчанию представлена погода в Намцах за последнюю неделю. Архивные данные за месяц целиком и за предыдущие месяцы, начиная с января 2011 года, Вы можете получить, выбрав интересующий диапазон дат из раскрывающегося списка и нажав кнопку "Ввод!".


*Определитесь, кто Вы:
робот инопланетянин человек

Внимание! Время в таблицах - всемирное. Для получения местного времени необходимо прибавить поправку, которая в Намцах равна 9 ч.

Смотрите также архив погоды в соседних городах и на ближайших метеорологических станциях:

Погода в Якутске (Якутия, Россия) (80 км)
Погода в Батамае (Якутия, Россия) (90 км)
Погода в Верхоянском Перевозе (Якутия, Россия) (138 км)
Погода в Покровске (Якутия, Россия) (140 км)
Погода в Бердигестяхе (Якутия, Россия) (143 км)
Погода в Сеген-Кюели (Якутия, Россия) (147 км)
Погода в Чурапче (Якутия, Россия) (173 км)
Погода в Сангаре (Якутия, Россия) (175 км)
Погода в Ытык-Кюёле (Якутия, Россия) (204 км)
Погода в Сого-Хае (Якутия, Россия) (235 км)

Пояснения к столбцам:

Ветер - указаны скорость ветра в м/с - средняя за 10 мин, порывы в срок и между сроками (в фигурных скобках) и направление, откуда дует ветер: С - северный, СВ - северо-восточный, В - восточный, ЮВ - юго-восточный, Ю - южный, ЮЗ - юго-западный, З - западный, СЗ - северо-западный.
Видимость - горизонтальная дальность видимости в метрах или километрах. При видимости от 1 до 10 км при отсутствии осадков обычно наблюдается дымка, при ухудшении видимости до 1 км и менее - туман. В сухую погоду видимость может ухудшаться дымом, пылью или мглою.
Явления - указаны атмосферные явления, наблюдавшиеся в срок или в последний час перед сроком; фигурными скобками обозначены явления, наблюдавшиеся между сроками (за 1-3 часа до срока); квадратными скобками обозначены град или гололедные отложения с указанием их диаметра в мм.
Облачность - указаны через наклонную черту общая и нижняя облачность в баллах и высота нижней границы облаков в метрах; квадратными скобками обозначены формы облаков: Ci - перистые, Cs - перисто-слоистые, Cc - перисто-кучевые, Ac - высококучевые, As - высокослоистые, Sc - слоисто-кучевые, Ns - слоисто-дождевые, Cu - кучевые, Cb - кучево-дождевые. Подробнее классификацию облаков см. в Атласе облаков (PDF).
T - Температура воздуха - температура, измеренная на высоте 2 м над землей.
Td - Температура точки росы - температура, при понижении до которой содержащийся в воздухе водяной пар достигнет насыщения.
f - Относительная влажность воздуха - влажноcть воздуха, измеренная на высоте 2 м над землей.
Te - Эффективная температура - температура, которую ощущает одетый по сезону человек в тени. Характеристика душности погоды. При расчете учитывается влияние влажности воздуха и скорости ветра на теплоощущения человека.
Tes - Эффективная температура на солнце - температура, которую ощущает человек, с поправкой на солнечный нагрев. Характеристика знойности погоды. Зависит от высоты солнца над горизонтом, облачности и скорости ветра. Ночью, в пасмурную погоду, а также при ветре 12 м/с и более поправка равна нулю.
P - Атмосферное давление - приведенное к уровню моря атмосферное давление.
Po - Атмосферное давление - измеренное на уровне метеостанции атмосферное давление.
Tmin - Минимальная температура - минимум температуры воздуха на высоте 2 м над землей.
Tmax - Максимальная температура - максимум температуры воздуха на высоте 2 м над землей.
R - Количество осадков - Количество выпавших осадков за период времени, мм. При наведении курсора мыши на число - период времени, за который выпало указанное количество осадков.
R24 - Количество осадков - Количество выпавших осадков за 24 часа, мм.
S - Снежный покров - Высота снежного покрова, см. При наведении курсора мыши на число - состояние снежного покрова и степень покрытия местности в баллах.